Flag for Germany Weather past 2 weeks in Bochum, North Rhine-Westphalia, Germany

Now
77 °F

Passing clouds.


Feels Like: 79 °F
Forecast: 63 / 80 °F
Wind: 9 mph from Northeast

Location: Dortmund / Wickede

Current Time: Jul 22, 2014 at 5:58:11 PM

Latest Report: Jul 22, 2014 at 5:20 PM


Visibility: N/A

Pressure: 30.07 "Hg

Humidity: 61%

Dew point: 63 °F

Location of BochumLocation

Historic Weather in Bochum — Graph

°F

Bochum temperature yesterday

Maximum temperature yesterday: 70 °F (at 5:20 PM)
Minimum temperature yesterday: 64 °F (at 5:20 AM)
Average temperature yesterday: 66 °F

Past Weeks' High & Low Weather Summary

 TemperatureHumidityPressure
High90 °F (Jul 19, 1:20 PM)100% (Jul 10, 5:20 AM)30.18 "Hg (Jul 10, 5:20 AM)
Low54 °F (Jul 8, 10:20 PM)22% (Jul 19, 2:50 PM)29.65 "Hg (Jul 9, 2:50 PM)
Average69 °F68%29.93 "Hg
* Reported Jul 7 4:20 PM — Jul 22 4:20 PM, Bochum, Weather by CustomWeather, © 2014

Note: Actual official high and low records may vary slightly from our data, if they occured in-between our weather recording intervals... More about our weather records

Advertising

Bochum weather history for previous 24 hours

 ConditionsComfort  
Time TempWeatherWind HumidityBarometerVisibility
4:20 PM
Jul 22
77 °FPassing clouds.9 mph61%30.07 "HgN/A
3:50 PM75 °FPassing clouds.8 mph61%30.07 "HgN/A
3:20 PM75 °FPassing clouds.9 mph65%30.07 "HgN/A
2:50 PM73 °FPassing clouds.10 mph65%30.07 "HgN/A
2:20 PM73 °FPassing clouds.10 mph65%30.07 "HgN/A
1:50 PM73 °FScattered clouds.8 mph69%30.07 "HgN/A
1:20 PM73 °FScattered clouds.9 mph65%30.07 "HgN/A
12:50 PM72 °FScattered clouds.9 mph73%30.07 "HgN/A
12:20 PM72 °FScattered clouds.8 mph69%30.07 "HgN/A
11:50 AM70 °FScattered clouds.9 mph73%30.07 "HgN/A
11:20 AM72 °FScattered clouds.10 mph73%30.04 "HgN/A
10:50 AM70 °FScattered clouds.8 mph78%30.04 "HgN/A
10:20 AM68 °FScattered clouds.7 mph78%30.04 "HgN/A
9:50 AM66 °FScattered clouds.6 mph83%30.04 "HgN/A
9:20 AM66 °FPassing clouds.7 mph78%30.04 "HgN/A
8:50 AM66 °FPassing clouds.7 mph78%30.04 "HgN/A
8:20 AM66 °FPassing clouds.6 mph83%30.01 "HgN/A
7:50 AM64 °FPassing clouds.6 mph83%30.01 "HgN/A
7:20 AM64 °FSunny.3 mph83%30.01 "Hg10 mi
6:50 AM64 °FSunny.6 mph88%30.01 "Hg10 mi
6:20 AM64 °FClear.6 mph100%29.98 "Hg10 mi
5:50 AM64 °FClear.5 mph100%29.98 "Hg4 mi
5:20 AM66 °FFog.3 mph100%29.98 "Hg1 mi
10:50 PM
Jul 21
66 °FFog.5 mph94%29.95 "Hg1 mi
10:20 PM66 °FFog.5 mph94%29.95 "Hg1 mi
9:50 PM66 °FFog.3 mph94%29.95 "Hg1 mi
9:20 PM68 °FFog.3 mph88%29.95 "Hg1 mi
8:50 PM68 °FFog.5 mph88%29.95 "Hg1 mi
8:20 PM68 °FFog.5 mph88%29.95 "Hg2 mi
7:50 PM68 °FFog.5 mph88%29.92 "Hg2 mi
7:20 PM68 °FFog.5 mph88%29.92 "Hg2 mi
6:50 PM68 °FFog.7 mph88%29.92 "Hg2 mi
6:20 PM70 °FFog.6 mph88%29.92 "Hg2 mi
5:50 PM70 °FFog.6 mph83%29.92 "Hg2 mi
5:20 PM70 °FFog.6 mph83%29.92 "Hg2 mi
Weather by CustomWeather, © 2014

See weather overviewHow to use our weather pages